period_start,C,m1,H,J0,J1,J2,J3,J4,J5,JA,JB,JC,JD,JJ,JK,JN,#
2017-07-05 00:03:22,0.00,0.83,0.00,23.74,28.22,31.12,13.64,41.94,998.23,2027.99,3187.98,2854.03,3275.92,600.06,583.86,42.88,0000 0000 0000 0000 000000
2017-07-05 00:08:24,-0.00,0.83,0.00,23.72,28.20,31.09,13.66,42.00,998.17,2028.00,3187.98,2854.05,3275.91,600.10,583.93,42.93,0000 0000 0000 0000 000000
2017-07-05 00:13:25,0.00,0.83,0.00,23.72,28.20,31.07,13.62,41.91,998.11,2028.02,3187.98,2854.14,3275.98,599.69,583.36,42.98,0000 0000 0000 0000 000000
2017-07-05 00:18:26,0.00,0.83,0.00,23.72,28.20,31.08,13.59,41.98,998.04,2028.03,3187.98,2854.14,3275.97,600.16,583.95,43.03,0000 0000 0000 0000 000000
2017-07-05 00:23:27,-0.00,0.82,0.00,23.72,28.18,31.08,13.61,41.92,997.80,2028.02,3187.99,2854.28,3275.98,599.86,583.46,43.08,0000 0000 0000 0000 000000
2017-07-05 00:28:29,0.00,0.83,0.00,23.73,28.17,31.07,13.65,42.02,997.65,2028.02,3187.99,2854.10,3275.96,600.07,583.47,43.14,0000 0000 0000 0000 000000
2017-07-05 00:33:30,-0.00,0.83,0.00,23.74,28.17,31.08,13.63,42.02,997.61,2028.01,3187.98,2854.08,3275.96,599.75,583.20,43.19,0000 0000 0000 0000 000000
2017-07-05 00:38:31,0.01,0.83,0.00,23.76,28.17,31.05,13.64,42.12,997.58,2028.05,3187.96,2854.03,3275.88,600.16,583.69,43.24,0000 0000 0000 0000 000000
2017-07-05 00:43:33,-0.00,0.83,0.00,23.77,28.17,31.07,13.64,42.16,997.58,2028.04,3187.96,2854.02,3275.83,599.68,583.08,43.29,0000 0000 0000 0000 000000
2017-07-05 00:48:34,-0.00,0.83,0.00,23.79,28.17,31.06,13.69,41.95,997.63,2028.04,3187.97,2854.04,3275.89,600.10,583.50,43.34,0000 0000 0000 0000 000000
2017-07-05 00:53:35,0.00,0.83,0.00,23.80,28.17,31.05,13.59,42.29,997.80,2028.05,3187.97,2854.02,3275.81,600.29,583.87,43.39,0000 0000 0000 0000 000000
2017-07-05 00:58:37,0.00,0.83,0.00,23.82,28.17,31.05,13.57,42.16,998.01,2028.04,3187.98,2854.02,3275.48,599.76,583.30,43.44,0000 0000 0000 0000 000000
2017-07-05 01:03:38,0.01,0.83,0.00,23.83,28.17,31.06,13.68,42.23,998.31,2028.03,3187.91,2854.00,3275.29,600.34,584.02,43.49,0000 0000 0000 0000 000000
2017-07-05 01:08:39,0.00,0.83,0.00,23.86,28.17,31.07,13.65,42.07,998.56,2028.02,3187.91,2854.00,3275.09,600.13,583.90,43.54,0000 0000 0000 0000 000000
2017-07-05 01:13:40,0.00,0.83,0.00,23.89,28.18,31.09,13.60,41.97,998.86,2028.01,3187.76,2854.00,3275.08,600.01,583.81,43.59,0000 0000 0000 0000 000000
2017-07-05 01:18:42,0.00,0.83,0.00,23.91,28.20,31.08,13.61,41.92,999.01,2028.02,3187.66,2854.00,3275.02,599.67,583.56,43.64,0000 0000 0000 0000 000000
2017-07-05 01:23:43,0.00,0.83,0.00,23.94,28.20,31.10,13.64,41.88,999.04,2028.02,3187.61,2854.00,3275.02,600.09,583.99,43.69,0000 0000 0000 0000 000000
2017-07-05 01:28:44,-0.00,0.83,0.00,23.98,28.20,31.10,13.71,42.03,999.04,2028.01,3187.87,2854.00,3275.00,600.51,584.42,43.74,0000 0000 0000 0000 000000
2017-07-05 01:33:45,0.00,0.83,0.00,23.99,28.22,31.11,13.53,41.95,999.12,2028.00,3187.92,2854.00,3275.00,599.73,583.62,43.79,0000 0000 0000 0000 000000
2017-07-05 01:38:47,0.00,0.83,0.00,24.00,28.22,31.12,13.60,41.89,999.34,2028.00,3187.89,2854.00,3275.00,599.67,583.63,43.84,0000 0000 0000 0000 000000
2017-07-05 01:43:49,0.00,0.83,0.00,24.02,28.24,31.12,13.62,41.86,999.52,2028.00,3187.75,2854.00,3275.00,600.10,584.14,43.89,0000 0000 0000 0000 000000
2017-07-05 01:48:50,0.00,0.83,0.00,24.02,28.25,31.16,13.64,41.92,999.57,2028.00,3187.71,2853.99,3275.00,600.41,584.40,43.94,0000 0000 0000 0000 000000
2017-07-05 01:53:51,0.01,0.83,0.00,24.03,28.26,31.18,13.63,41.75,999.87,2027.99,3187.15,2853.97,3275.00,600.07,584.31,43.99,0000 0000 0000 0000 000000
2017-07-05 01:58:52,0.00,0.83,0.00,24.04,28.27,31.19,13.59,41.85,1000.00,2027.99,3187.01,2853.85,3274.97,599.92,584.14,44.05,0000 0000 0000 0000 000000
2017-07-05 02:03:53,0.01,0.83,0.00,24.05,28.27,31.22,13.62,42.23,1000.00,2027.99,3187.00,2853.55,3274.91,600.13,584.23,44.10,0000 0000 0000 0000 000000
2017-07-05 02:08:55,0.00,0.83,0.00,24.04,28.28,31.23,13.72,42.08,1000.01,2027.99,3187.00,2853.37,3274.80,600.20,584.43,44.15,0000 0000 0000 0000 000000
2017-07-05 02:13:56,0.01,0.83,0.00,24.03,28.30,31.24,13.65,42.16,1000.01,2027.97,3187.00,2853.19,3274.34,600.12,584.38,44.20,0000 0000 0000 0000 000000
2017-07-05 02:18:58,-0.01,0.83,0.00,24.05,28.30,31.24,13.63,42.14,1000.01,2027.95,3186.99,2853.21,3274.30,599.91,584.11,44.25,0000 0000 0000 0000 000000
2017-07-05 02:23:59,0.00,0.83,0.00,24.03,28.30,31.26,13.65,42.21,1000.00,2027.93,3186.99,2853.11,3274.13,599.94,584.26,44.30,0000 0000 0000 0000 000000
2017-07-05 02:29:00,-0.00,0.83,0.00,24.01,28.30,31.26,13.65,42.29,1000.01,2027.87,3186.99,2853.08,3274.13,600.23,584.39,44.35,0000 0000 0000 0000 000000
2017-07-05 02:34:01,0.01,0.83,0.00,24.01,28.30,31.26,13.68,42.09,1000.01,2027.88,3186.94,2853.02,3274.04,600.36,584.60,44.40,0000 0000 0000 0000 000000
2017-07-05 02:39:02,0.01,0.83,0.00,24.02,28.30,31.25,13.68,42.01,1000.03,2027.90,3186.64,2853.02,3274.00,599.89,584.20,44.45,0000 0000 0000 0000 000000
2017-07-05 02:44:03,-0.01,0.83,0.00,24.00,28.30,31.25,13.67,42.04,1000.04,2027.92,3186.87,2853.03,3274.02,600.00,584.38,44.50,0000 0000 0000 0000 000000
2017-07-05 02:49:04,-0.01,0.83,0.00,24.00,28.30,31.24,13.66,41.98,1000.11,2027.92,3186.93,2853.04,3274.03,600.01,584.52,44.55,0000 0000 0000 0000 000000
2017-07-05 02:54:06,0.00,0.83,0.00,24.00,28.30,31.27,13.59,41.97,1000.41,2027.84,3186.91,2853.03,3274.02,599.82,584.43,44.60,0000 0000 0000 0000 000000
2017-07-05 02:59:07,0.01,0.83,0.00,24.00,28.30,31.26,13.64,41.95,1000.55,2027.85,3186.68,2853.00,3274.00,599.79,584.59,44.65,0000 0000 0000 0000 000000
2017-07-05 03:04:08,-0.01,0.83,0.00,23.99,28.30,31.27,13.64,41.95,1000.60,2027.85,3186.50,2853.01,3274.00,600.11,584.75,44.70,0000 0000 0000 0000 000000
2017-07-05 03:09:09,-0.01,0.83,0.00,24.00,28.30,31.24,13.61,42.13,1000.54,2027.74,3186.91,2853.03,3274.01,600.01,584.74,44.75,0000 0000 0000 0000 000000
2017-07-05 03:14:11,-0.04,0.83,0.00,23.97,28.30,31.23,13.64,42.52,1000.52,2027.28,3186.91,2853.01,3274.00,600.05,584.68,44.80,0000 0000 0000 0000 000000
2017-07-05 03:19:12,-0.01,0.83,0.00,23.97,28.30,31.24,13.58,42.57,1000.51,2027.10,3186.75,2853.00,3274.00,599.88,584.51,44.85,0000 0000 0000 0000 000000
2017-07-05 03:24:13,-0.01,0.82,0.00,23.95,28.30,31.23,13.68,42.67,1000.47,2027.07,3186.91,2853.01,3274.00,599.91,584.66,44.90,0000 0000 0000 0000 000000
2017-07-05 03:29:14,-0.00,0.82,0.00,23.95,28.30,31.22,13.68,42.77,1000.34,2027.03,3186.94,2853.00,3274.00,600.35,584.94,44.96,0000 0000 0000 0000 000000
2017-07-05 03:34:16,-0.00,0.82,0.00,23.92,28.30,31.23,13.70,42.62,1000.26,2027.03,3186.85,2853.01,3274.00,600.10,584.50,45.01,0000 0000 0000 0000 000000
2017-07-05 03:39:17,-0.00,0.82,0.00,23.92,28.29,31.21,13.63,42.64,1000.07,2027.01,3186.93,2853.02,3274.00,599.88,584.38,45.06,0000 0000 0000 0000 000000
2017-07-05 03:44:18,0.01,0.82,0.00,23.90,28.28,31.21,13.60,42.55,1000.20,2027.01,3186.98,2853.01,3273.99,599.83,584.43,45.11,0000 0000 0000 0000 000000
2017-07-05 03:49:19,-0.00,0.82,0.00,23.87,28.27,31.22,13.58,42.45,1000.11,2027.01,3186.94,2853.01,3273.99,599.84,584.56,45.16,0000 0000 0000 0000 000000
2017-07-05 03:54:20,-0.00,0.82,0.00,23.87,28.27,31.19,13.62,42.44,1000.31,2027.01,3186.89,2853.02,3273.99,599.84,584.56,45.21,0000 0000 0000 0000 000000
2017-07-05 03:59:22,0.00,0.82,0.00,23.87,28.27,31.16,13.62,42.50,1000.50,2027.03,3186.66,2853.01,3273.99,600.01,584.88,45.26,0000 0000 0000 0000 000000
2017-07-05 04:04:23,0.01,0.83,0.00,23.87,28.27,31.17,13.69,42.38,1000.51,2027.13,3186.72,2853.03,3273.99,600.09,584.89,45.31,0000 0000 0000 0000 000000
2017-07-05 04:09:24,-0.01,0.83,0.00,23.87,28.25,31.16,13.68,42.52,1000.51,2027.13,3186.84,2853.02,3273.99,600.00,584.86,45.36,0000 0000 0000 0000 000000
2017-07-05 04:14:25,0.03,0.83,0.00,23.86,28.25,31.15,13.72,42.47,1000.50,2027.29,3186.80,2853.05,3273.99,600.39,585.28,45.41,0000 0000 0000 0000 000000
2017-07-05 04:19:27,-0.01,0.83,0.00,23.87,28.25,31.15,13.71,42.66,1000.55,2027.34,3186.62,2853.02,3273.99,599.98,584.89,45.46,0000 0000 0000 0000 000000
2017-07-05 04:24:28,-0.01,0.83,0.00,23.86,28.25,31.14,13.61,42.42,1000.60,2027.31,3186.78,2853.03,3273.99,600.01,584.97,45.51,0000 0000 0000 0000 000000
2017-07-05 04:29:29,-0.00,0.83,0.00,23.86,28.24,31.13,13.70,42.52,1000.59,2027.39,3186.87,2853.04,3273.99,599.99,584.94,45.56,0000 0000 0000 0000 000000
2017-07-05 04:34:30,-0.00,0.83,0.00,23.85,28.23,31.12,13.70,42.41,1000.51,2027.24,3186.96,2853.06,3273.99,600.22,585.15,45.61,0000 0000 0000 0000 000000
2017-07-05 04:39:31,-0.01,0.82,0.00,23.84,28.22,31.11,13.67,42.55,1000.50,2027.12,3186.97,2853.07,3273.99,600.09,585.06,45.66,0000 0000 0000 0000 000000
2017-07-05 04:44:33,0.00,0.82,0.00,23.84,28.22,31.12,13.70,42.63,1000.52,2027.13,3186.97,2853.09,3273.99,600.37,585.30,45.71,0000 0000 0000 0000 000000
2017-07-05 04:49:34,0.01,0.82,0.00,23.84,28.22,31.12,13.66,42.52,1000.56,2027.12,3186.81,2853.03,3273.99,599.96,585.08,45.76,0000 0000 0000 0000 000000
2017-07-05 04:54:35,0.05,0.83,0.00,23.83,28.22,31.10,13.62,42.47,1000.57,2027.42,3186.53,2853.03,3273.99,600.06,585.04,45.81,0000 0000 0000 0000 000000
2017-07-05 04:59:37,-0.01,0.83,0.00,23.82,28.20,31.10,13.61,42.32,1000.51,2027.53,3186.47,2853.02,3273.99,600.06,585.07,45.86,0000 0000 0000 0000 000000
2017-07-05 05:04:38,0.02,0.83,0.00,23.81,28.20,31.10,13.66,42.45,1000.50,2027.60,3186.74,2853.08,3273.99,599.88,584.75,45.92,0000 0000 0000 0000 000000
2017-07-05 05:09:40,0.00,0.83,0.00,23.80,28.20,31.10,13.69,42.36,1000.48,2027.89,3186.92,2853.26,3273.99,599.96,584.93,45.97,0000 0000 0000 0000 000000
2017-07-05 05:14:41,-0.00,0.83,0.00,23.80,28.20,31.10,13.62,42.52,1000.40,2027.87,3186.96,2853.26,3274.00,599.59,584.37,46.02,0000 0000 0000 0000 000000
2017-07-05 05:19:42,-0.01,0.83,0.00,23.79,28.19,31.08,13.63,42.66,1000.21,2027.86,3186.98,2853.39,3274.00,599.88,584.79,46.07,0000 0000 0000 0000 000000
2017-07-05 05:24:43,0.00,0.83,0.00,23.78,28.17,31.06,13.66,42.54,1000.19,2027.85,3186.97,2853.47,3274.00,599.88,584.74,46.12,0000 0000 0000 0000 000000
2017-07-05 05:29:44,-0.01,0.83,0.00,23.78,28.17,31.07,13.59,42.62,1000.04,2027.73,3186.98,2853.46,3274.00,599.79,584.55,46.17,0000 0000 0000 0000 000000
2017-07-05 05:34:46,-0.00,0.83,0.00,23.76,28.17,31.07,13.74,42.78,1000.09,2027.64,3186.98,2853.48,3274.00,600.19,585.02,46.22,0000 0000 0000 0000 000000
2017-07-05 05:39:47,0.05,0.83,0.00,23.75,28.17,31.05,13.64,43.01,1000.29,2027.87,3186.42,2853.16,3274.00,599.88,585.08,46.27,0000 0000 0000 0000 000000
2017-07-05 05:44:48,0.00,0.83,0.00,23.73,28.16,31.06,13.71,42.66,1000.19,2027.97,3186.08,2853.10,3274.00,600.01,584.99,46.32,0000 0000 0000 0000 000000
2017-07-05 05:49:50,-0.01,0.83,0.00,23.72,28.15,31.04,13.64,42.59,1000.48,2027.98,3186.49,2853.31,3274.00,600.06,585.21,46.37,0000 0000 0000 0000 000000
2017-07-05 05:54:51,-0.02,0.83,0.00,23.71,28.15,31.02,13.70,42.67,1000.50,2027.99,3186.78,2853.74,3274.01,600.31,585.48,46.42,0000 0000 0000 0000 000000
2017-07-05 05:59:52,0.01,0.83,0.00,23.70,28.14,31.02,13.63,42.67,1000.53,2027.99,3186.81,2853.82,3274.02,600.02,585.36,46.47,0000 0000 0000 0000 000000
2017-07-05 06:04:53,0.01,0.83,0.00,23.69,28.12,31.02,13.70,42.53,1000.68,2027.99,3186.43,2853.76,3274.00,600.15,585.41,46.52,0000 0000 0000 0000 000000
2017-07-05 06:09:55,0.01,0.83,0.00,23.67,28.12,31.02,13.64,42.41,1000.87,2027.99,3186.07,2853.65,3274.01,600.13,585.65,46.57,0000 0000 0000 0000 000000
2017-07-05 06:14:56,-0.00,0.83,0.00,23.65,28.10,31.00,13.78,42.33,1000.96,2028.00,3186.21,2853.86,3274.01,600.19,585.76,46.62,0000 0000 0000 0000 000000
2017-07-05 06:19:57,-0.01,0.83,0.00,23.65,28.10,30.97,13.78,42.64,1000.96,2028.00,3186.45,2853.93,3274.02,600.12,585.86,46.67,0000 0000 0000 0000 000000
2017-07-05 06:24:58,-0.00,0.83,0.00,23.63,28.09,30.99,13.69,42.48,1001.00,2028.00,3186.64,2853.94,3274.03,599.89,585.52,46.72,0000 0000 0000 0000 000000
2017-07-05 06:30:00,-0.00,0.83,0.00,23.62,28.07,30.96,13.69,42.35,1001.02,2028.00,3186.69,2853.99,3274.14,600.11,585.78,46.77,0000 0000 0000 0000 000000
2017-07-05 06:35:01,0.01,0.83,0.00,23.62,28.07,30.96,13.69,42.23,1001.32,2028.01,3186.60,2853.97,3274.07,599.83,585.71,46.82,0000 0000 0000 0000 000000
2017-07-05 06:40:02,-0.00,0.83,0.00,23.62,28.05,30.96,13.67,42.25,1001.50,2028.01,3186.59,2853.97,3274.04,599.89,585.71,46.88,0000 0000 0000 0000 000000
2017-07-05 06:45:04,-0.00,0.83,0.00,23.60,28.05,30.96,13.72,42.07,1001.73,2028.02,3186.78,2853.97,3274.06,599.99,586.17,46.93,0000 0000 0000 0000 000000
2017-07-05 06:50:05,-0.00,0.83,0.00,23.60,28.05,30.95,13.67,41.88,1001.95,2028.04,3186.86,2853.98,3274.12,599.82,586.08,46.98,0000 0000 0000 0000 000000
2017-07-05 06:55:06,-0.00,0.83,0.00,23.60,28.03,30.95,13.70,42.13,1001.94,2028.02,3186.97,2853.99,3274.10,600.31,586.54,47.03,0000 0000 0000 0000 000000
2017-07-05 07:00:07,-0.00,0.83,0.00,23.60,28.02,30.92,13.67,42.33,1001.97,2028.01,3186.98,2853.99,3274.20,600.09,586.39,47.08,0000 0000 0000 0000 000000
2017-07-05 07:05:09,0.00,0.83,0.00,23.58,28.02,30.94,13.69,42.59,1001.97,2028.00,3186.99,2853.99,3274.19,600.03,586.28,47.13,0000 0000 0000 0000 000000
2017-07-05 07:10:09,-0.01,0.83,0.00,23.56,28.00,30.93,13.73,42.54,1001.95,2028.01,3186.99,2854.00,3274.49,600.21,586.57,47.18,0000 0000 0000 0000 000000
2017-07-05 07:15:10,-0.00,0.83,0.00,23.56,28.00,30.93,13.75,42.52,1001.94,2028.00,3187.00,2854.00,3274.59,599.96,586.34,47.23,0000 0000 0000 0000 000000
2017-07-05 07:20:12,0.00,0.83,0.00,23.53,27.99,30.90,13.74,42.58,1001.90,2028.02,3187.00,2854.00,3274.65,600.15,586.51,47.28,0000 0000 0000 0000 000000
2017-07-05 07:25:13,-0.01,0.83,0.00,23.50,27.97,30.90,13.63,42.42,1001.87,2028.01,3187.00,2854.01,3274.90,599.98,586.32,47.33,0000 0000 0000 0000 000000
2017-07-05 07:30:14,0.00,0.83,0.00,23.49,27.97,30.87,13.63,42.32,1001.96,2028.04,3187.00,2854.03,3274.97,599.60,586.09,47.38,0000 0000 0000 0000 000000
2017-07-05 07:35:16,-0.00,0.83,0.00,23.47,27.95,30.87,13.74,42.38,1002.13,2028.07,3187.00,2854.06,3274.98,600.32,586.87,47.43,0000 0000 0000 0000 000000
2017-07-05 07:40:17,0.02,0.83,0.00,23.45,27.94,30.85,13.74,42.34,1002.38,2028.22,3187.01,2854.10,3274.99,600.08,586.88,47.48,0000 0000 0000 0000 000000
2017-07-05 07:45:18,0.03,0.83,0.00,23.42,27.92,30.85,13.69,42.48,1002.08,2028.66,3187.00,2854.35,3274.99,599.81,586.56,47.53,0000 0000 0000 0000 000000
2017-07-05 07:50:19,0.01,0.83,0.00,23.40,27.91,30.81,13.72,42.33,1001.99,2028.94,3187.00,2854.50,3274.99,600.36,586.97,47.58,0000 0000 0000 0000 000000
2017-07-05 07:55:21,0.01,0.83,0.00,23.38,27.90,30.81,13.66,42.17,1001.96,2028.98,3187.00,2854.53,3274.99,600.02,586.73,47.63,0000 0000 0000 0000 000000
2017-07-05 08:00:22,-0.01,0.83,0.00,23.36,27.88,30.78,13.74,42.23,1001.97,2028.99,3187.00,2854.63,3274.99,600.14,586.80,47.68,0000 0000 0000 0000 000000
2017-07-05 08:05:23,-0.00,0.83,0.00,23.33,27.87,30.76,13.70,42.23,1001.93,2028.99,3187.01,2854.88,3275.01,600.16,587.05,47.73,0000 0000 0000 0000 000000
2017-07-05 08:10:24,0.02,0.83,0.00,23.32,27.85,30.74,13.69,42.56,1001.58,2028.99,3187.01,2854.53,3275.01,599.91,586.45,47.78,0000 0000 0000 0000 000000
2017-07-05 08:15:25,0.00,0.83,0.00,23.31,27.83,30.73,13.62,42.45,1001.69,2028.99,3187.00,2854.15,3274.99,599.69,586.43,47.84,0000 0000 0000 0000 000000
2017-07-05 08:20:27,-0.01,0.83,0.00,23.27,27.81,30.71,13.67,42.38,1001.52,2029.01,3187.00,2854.66,3274.99,599.99,586.55,47.89,0000 0000 0000 0000 000000
2017-07-05 08:25:28,0.01,0.83,0.00,23.23,27.80,30.69,13.68,42.79,1001.49,2029.01,3187.00,2854.40,3274.99,600.18,586.91,47.94,0000 0000 0000 0000 000000
2017-07-05 08:30:30,0.05,0.83,0.00,23.19,27.77,30.66,13.69,42.64,1001.45,2029.07,3186.90,2853.79,3274.35,599.79,586.48,47.99,0000 0000 0000 0000 000000
2017-07-05 08:35:31,-0.00,0.83,0.00,23.16,27.75,30.63,13.68,43.08,1001.50,2029.11,3186.96,2853.65,3274.00,599.77,586.68,48.04,0000 0000 0000 0000 000000
2017-07-05 08:40:32,0.06,0.84,0.00,23.12,27.73,30.58,13.74,42.45,1001.52,2029.18,3186.25,2853.03,3273.26,600.15,587.05,48.09,0000 0000 0000 0000 000000
2017-07-05 08:45:33,0.05,0.84,0.00,23.07,27.71,30.55,13.75,42.88,1001.53,2029.63,3186.00,2852.52,3273.00,599.97,587.02,48.14,0000 0000 0000 0000 000000
2017-07-05 08:50:34,0.00,0.84,0.00,23.03,27.68,30.53,13.68,42.48,1001.67,2029.63,3185.99,2852.13,3272.97,599.81,587.01,48.19,0000 0000 0000 0000 000000
2017-07-05 08:55:35,0.02,0.84,0.00,23.00,27.66,30.46,13.81,42.60,1001.86,2029.84,3185.99,2852.30,3272.98,600.18,587.48,48.24,0000 0000 0000 0000 000000
2017-07-05 09:00:36,-0.00,0.84,0.00,22.94,27.63,30.44,13.77,42.56,1001.94,2029.94,3186.00,2852.80,3272.99,600.56,588.09,48.29,0000 0000 0000 0000 000000
2017-07-05 09:05:37,0.00,0.84,0.00,22.92,27.60,30.43,13.69,42.50,1001.90,2029.98,3185.96,2852.82,3272.90,599.68,587.23,48.34,0000 0000 0000 0000 000000
2017-07-05 09:10:39,0.10,0.85,0.00,22.87,27.57,30.37,13.78,42.80,1001.91,2029.99,3185.09,2851.10,3271.18,600.31,588.02,48.39,0000 0000 0000 0000 000000
2017-07-05 09:15:40,-0.00,0.85,0.00,22.83,27.54,30.33,13.68,42.54,1001.97,2029.99,3184.98,2850.92,3270.99,599.92,587.82,48.44,0000 0000 0000 0000 000000
2017-07-05 09:20:41,0.00,0.85,0.00,22.78,27.51,30.30,13.74,42.71,1001.94,2029.99,3184.99,2850.98,3270.99,600.03,587.90,48.49,0000 0000 0000 0000 000000
2017-07-05 09:25:42,0.00,0.85,0.00,22.74,27.48,30.26,13.77,42.49,1001.97,2029.99,3184.99,2850.99,3271.00,600.19,588.17,48.54,0000 0000 0000 0000 000000
2017-07-05 09:30:44,0.00,0.85,0.00,22.71,27.45,30.20,13.71,42.75,1001.97,2030.01,3184.99,2850.99,3271.05,599.94,588.06,48.59,0000 0000 0000 0000 000000
2017-07-05 09:35:45,0.01,0.85,0.00,22.65,27.42,30.16,13.69,42.53,1001.99,2030.11,3185.02,2851.00,3271.25,599.91,588.07,48.64,0000 0000 0000 0000 000000
2017-07-05 09:40:46,0.01,0.85,0.00,22.62,27.39,30.13,13.70,42.87,1002.00,2030.30,3185.02,2851.00,3271.07,600.08,588.29,48.69,0000 0000 0000 0000 000000
2017-07-05 09:45:47,0.04,0.85,0.00,22.58,27.36,30.06,13.70,43.02,1002.01,2030.73,3185.03,2851.00,3271.16,599.96,588.21,48.74,0000 0000 0000 0000 000000
2017-07-05 09:50:49,-0.00,0.85,0.00,22.53,27.32,30.01,13.69,43.15,1002.00,2030.96,3185.38,2851.02,3271.65,599.84,588.28,48.80,0000 0000 0000 0000 000000
2017-07-05 09:55:50,-0.00,0.85,0.00,22.49,27.28,29.92,13.75,42.93,1002.04,2030.99,3185.64,2851.06,3271.96,599.99,588.53,48.85,0000 0000 0000 0000 000000
2017-07-05 10:00:51,-0.01,0.85,0.00,22.45,27.25,29.90,13.71,42.96,1002.12,2030.99,3185.95,2851.50,3271.99,599.83,588.45,48.90,0000 0000 0000 0000 000000
2017-07-05 10:05:53,-0.01,0.85,0.00,22.42,27.21,29.89,13.79,42.92,1002.32,2031.00,3185.99,2851.95,3272.01,600.03,588.74,48.95,0000 0000 0000 0000 000000
2017-07-05 10:10:54,0.01,0.85,0.00,22.39,27.18,29.87,13.72,43.02,1002.39,2031.12,3185.99,2851.99,3272.07,600.00,588.89,49.00,0000 0000 0000 0000 000000
2017-07-05 10:15:56,0.03,0.85,0.00,22.34,27.14,29.83,13.79,43.13,1002.42,2031.45,3186.01,2851.99,3272.50,600.16,589.18,49.05,0000 0000 0000 0000 000000
2017-07-05 10:20:57,0.02,0.85,0.00,22.30,27.11,29.79,13.80,42.95,1002.36,2031.93,3186.02,2852.01,3272.94,599.76,588.77,49.10,0000 0000 0000 0000 000000
2017-07-05 10:25:58,-0.01,0.85,0.00,22.26,27.07,29.71,13.79,43.06,1002.15,2031.99,3186.27,2852.31,3272.99,599.89,588.96,49.15,0000 0000 0000 0000 000000
2017-07-05 10:31:00,-0.02,0.85,0.00,22.24,27.03,29.69,13.81,43.01,1002.06,2031.99,3186.89,2852.91,3273.07,600.05,589.19,49.20,0000 0000 0000 0000 000000
2017-07-05 10:36:01,-0.00,0.85,0.00,22.21,27.00,29.68,13.75,42.93,1002.07,2032.03,3186.96,2852.99,3273.49,600.01,589.07,49.25,0000 0000 0000 0000 000000
2017-07-05 10:41:03,0.01,0.85,0.00,22.18,26.96,29.64,13.77,42.93,1002.19,2032.14,3186.99,2852.99,3273.93,600.11,589.34,49.30,0000 0000 0000 0000 000000
2017-07-05 10:46:04,0.05,0.85,0.00,22.14,26.92,29.56,13.74,43.11,1002.13,2032.75,3187.01,2853.08,3273.99,599.88,589.09,49.35,0000 0000 0000 0000 000000
2017-07-05 10:51:05,0.01,0.85,0.00,22.11,26.89,29.56,13.79,43.21,1002.17,2032.93,3187.08,2853.25,3274.00,599.89,589.15,49.40,0000 0000 0000 0000 000000
2017-07-05 10:56:06,0.00,0.85,0.00,22.08,26.85,29.50,13.79,43.22,1002.25,2032.99,3187.03,2853.05,3274.00,599.99,589.37,49.45,0000 0000 0000 0000 000000
2017-07-05 11:01:07,-0.01,0.85,0.00,22.05,26.81,29.50,13.75,42.91,1002.42,2032.99,3187.08,2853.37,3274.02,600.17,589.80,49.50,0000 0000 0000 0000 000000
2017-07-05 11:06:09,-0.03,0.85,0.00,22.01,26.78,29.50,13.80,43.17,1002.45,2033.02,3187.74,2853.95,3274.49,599.81,589.51,49.55,0000 0000 0000 0000 000000
2017-07-05 11:11:10,0.02,0.85,0.00,21.97,26.74,29.43,13.85,42.99,1002.46,2033.15,3187.88,2853.98,3274.92,599.97,589.75,49.60,0000 0000 0000 0000 000000
2017-07-05 11:16:11,0.05,0.85,0.00,21.93,26.71,29.41,13.82,42.76,1002.47,2033.71,3187.98,2853.99,3274.99,600.09,589.98,49.66,0000 0000 0000 0000 000000
2017-07-05 11:21:12,0.01,0.85,0.00,21.90,26.67,29.33,13.77,42.64,1002.50,2033.97,3187.99,2854.01,3275.00,599.62,589.57,49.71,0000 0000 0000 0000 000000
2017-07-05 11:26:14,-0.00,0.85,0.00,21.86,26.63,29.30,13.75,42.98,1002.47,2033.99,3187.99,2854.15,3275.05,599.73,589.72,49.76,0000 0000 0000 0000 000000
2017-07-05 11:31:15,-0.03,0.85,0.00,21.83,26.60,29.24,13.79,42.97,1002.47,2033.99,3188.09,2854.70,3275.45,600.35,590.25,49.81,0000 0000 0000 0000 000000
2017-07-05 11:36:16,0.04,0.85,0.00,21.80,26.56,29.22,13.83,43.03,1002.49,2034.00,3188.01,2854.05,3275.04,600.00,590.13,49.86,0000 0000 0000 0000 000000
2017-07-05 11:41:17,0.05,0.85,0.00,21.75,26.53,29.22,13.85,43.08,1002.53,2034.09,3187.80,2853.71,3274.68,600.24,590.40,49.91,0000 0000 0000 0000 000000
2017-07-05 11:46:18,0.07,0.86,0.00,21.71,26.50,29.19,13.79,42.69,1002.76,2034.58,3187.07,2853.01,3274.01,599.90,590.35,49.96,0000 0000 0000 0000 000000
2017-07-05 11:51:19,0.02,0.86,0.00,21.69,26.46,29.14,13.76,42.69,1002.64,2034.94,3187.25,2853.00,3273.99,599.88,590.32,50.01,0000 0000 0000 0000 000000
2017-07-05 11:56:20,-0.01,0.86,0.00,21.67,26.42,29.09,13.81,42.84,1002.69,2034.98,3187.79,2853.04,3274.03,599.98,590.55,50.06,0000 0000 0000 0000 000000
2017-07-05 12:01:21,-0.01,0.86,0.00,21.63,26.39,29.05,13.87,42.85,1002.75,2034.99,3187.97,2853.23,3274.38,600.20,590.86,50.11,0000 0000 0000 0000 000000
2017-07-05 12:06:23,-0.02,0.86,0.00,21.59,26.35,29.06,13.81,42.77,1002.89,2034.99,3187.99,2853.90,3274.95,600.28,590.99,50.16,0000 0000 0000 0000 000000
2017-07-05 12:11:24,0.02,0.86,0.00,21.56,26.31,29.00,13.76,42.84,1002.89,2035.11,3188.04,2853.99,3274.99,599.52,590.48,50.21,0000 0000 0000 0000 000000
2017-07-05 12:16:25,0.03,0.86,0.00,21.52,26.28,28.95,13.83,42.99,1002.91,2035.43,3188.11,2854.00,3275.02,600.42,591.37,50.26,0000 0000 0000 0000 000000
2017-07-05 12:21:26,0.02,0.86,0.00,21.48,26.24,28.94,13.80,42.67,1002.90,2035.93,3188.48,2854.04,3275.36,600.10,591.09,50.31,0000 0000 0000 0000 000000
2017-07-05 12:26:28,0.03,0.86,0.00,21.44,26.21,28.93,13.81,42.74,1002.94,2035.99,3188.50,2853.94,3275.34,599.82,590.88,50.36,0000 0000 0000 0000 000000
2017-07-05 12:31:29,0.05,0.87,0.00,21.43,26.17,28.87,13.85,42.68,1003.02,2035.99,3187.58,2852.92,3274.01,600.11,591.25,50.41,0000 0000 0000 0000 000000
2017-07-05 12:36:30,-0.00,0.87,0.00,21.41,26.13,28.89,13.84,42.72,1003.15,2036.00,3187.77,2852.96,3273.99,600.12,591.33,50.46,0000 0000 0000 0000 000000
2017-07-05 12:41:32,0.00,0.87,0.00,21.39,26.10,28.84,13.79,42.58,1003.22,2036.02,3187.95,2852.99,3273.99,599.93,591.33,50.51,0000 0000 0000 0000 000000
2017-07-05 12:46:33,0.01,0.87,0.00,21.37,26.07,28.86,13.84,42.83,1003.37,2036.14,3187.99,2853.00,3274.07,600.46,591.92,50.56,0000 0000 0000 0000 000000
2017-07-05 12:51:34,0.04,0.87,0.00,21.37,26.04,28.85,13.85,42.79,1003.47,2036.64,3188.00,2853.06,3274.44,600.08,591.63,50.62,0000 0000 0000 0000 000000
2017-07-05 12:56:35,-0.00,0.87,0.00,21.33,26.01,28.85,13.81,42.80,1003.66,2036.94,3188.16,2853.38,3274.94,599.82,591.58,50.67,0000 0000 0000 0000 000000